[[{"header":{"parameterUnit":"m.s-1","parameterCategory":1,"la1":30.2991,"la2":30.254,"lo1":-89.0895,"lo2":-89.0444,"dy":0.0017,"dx":0.0017,"nx":28,"ny":28,"refTime":"2025-09-14T09:00:00:Z","depth":0,"parameterNumber":2,"parameterNumberName":"U-component_of_WINDS"},"data":[0,0,0,0,0,0,0,0,0,0,0,0,0,0,0,0,0,0,0,0,0,0,0,0,0,0,0,0,0,0,0,0,0,0,0,0,0,0,0,0,0,0,0,0,0,0,0,0,0,0,0,0,0,0,0,0,0,0,-0.1674,-0.1674,0,-0.1668,-0.1668,-0.1668,-0.1637,-0.1636,-0.1635,-0.1634,-0.163,-0.163,-0.1631,0,0,0,0,0,0,0,0,0,0,0,0,0,-0.1659,-0.1659,-0.1674,-0.1674,-0.1674,-0.1668,-0.1668,-0.1668,-0.1637,-0.1636,-0.1635,-0.1634,-0.1629,-0.163,-0.1631,0,0,0,0,0,0,0,0,0,0,0,0,0,-0.166,-0.1659,-0.1674,-0.1657,-0.1656,-0.1668,-0.1668,-0.1668,-0.1637,-0.1636,-0.1635,-0.1634,-0.1629,-0.163,-0.1631,-0.1659,0,0,-0.1633,-0.1634,0,0,0,0,0,0,0,0,-0.166,-0.1661,-0.166,-0.1658,-0.1657,-0.1652,-0.1661,-0.1665,-0.1637,-0.1644,-0.1634,-0.1633,-0.1638,-0.1638,-0.1639,-0.1658,-0.1658,-0.1633,-0.1634,-0.1634,-0.1635,0,0,0,0,0,0,0,-0.166,-0.1661,-0.1671,-0.166,-0.1658,-0.1651,-0.165,-0.1662,-0.1647,-0.1643,-0.1641,-0.1641,-0.1637,-0.1639,-0.1639,-0.1658,-0.1633,-0.1634,-0.1635,-0.1635,-0.1701,-0.1703,0,0,0,0,0,0,-0.1662,-0.1661,-0.1672,-0.1671,-0.1656,-0.1652,-0.1651,-0.1655,-0.1647,-0.1645,-0.1642,-0.1639,-0.1638,-0.1638,-0.1639,-0.1672,-0.1634,-0.1635,-0.1636,-0.17,-0.1702,-0.1703,0,0,0,0,0,0,-0.1662,-0.1664,-0.1672,-0.1666,-0.1666,-0.1653,-0.1658,-0.1655,-0.1657,-0.1646,-0.1643,-0.1646,-0.1637,-0.1638,-0.1654,-0.1671,-0.1636,-0.1636,-0.1699,-0.1701,-0.1702,-0.1738,0,0,0,0,0,0,-0.1662,-0.1664,-0.1674,-0.1666,-0.1667,-0.1687,-0.1659,-0.1656,-0.1658,-0.1655,-0.1649,-0.1647,-0.1636,-0.1653,-0.1655,-0.1672,-0.1637,-0.1697,-0.17,-0.1702,-0.1736,-0.1741,-0.1746,0,0,0,0,0,-0.1661,-0.1684,-0.1674,-0.1676,-0.1679,-0.1688,-0.1688,-0.1675,-0.166,-0.167,-0.1663,-0.1648,-0.1669,-0.1655,-0.1657,-0.1674,-0.1696,-0.1699,-0.1702,-0.1733,-0.174,-0.1746,0,0,0,0,0,0,-0.1694,-0.1683,-0.1672,-0.1693,-0.1692,-0.1683,-0.1695,-0.1682,-0.1686,-0.1682,-0.1665,-0.1664,-0.1684,-0.1681,-0.1665,-0.1702,-0.168,-0.1683,-0.1703,-0.171,-0.1715,-0.1716,-0.1638,0,0,0,0,0,-0.1704,-0.1712,-0.1701,-0.1721,-0.1721,-0.1708,-0.1712,-0.1701,-0.17,-0.1699,-0.1693,-0.1693,-0.17,-0.1704,-0.171,-0.1735,-0.1734,-0.1748,-0.1753,-0.1757,-0.1761,-0.1775,-0.1782,-0.1712,-0.1712,-0.1712,0,0,-0.1723,-0.1718,-0.1724,-0.1727,-0.1725,-0.1735,-0.1708,-0.1719,-0.1726,-0.1701,-0.1716,-0.1712,-0.1711,-0.1732,-0.1741,-0.173,-0.178,-0.1761,-0.1765,-0.1766,-0.1779,-0.1785,-0.1791,-0.1714,-0.1714,-0.1714,0,0,-0.1765,-0.1761,-0.1777,-0.1776,-0.1773,-0.1765,-0.1769,-0.1763,-0.1759,-0.1774,-0.1756,-0.1765,-0.1776,-0.1776,-0.1777,-0.182,-0.1806,-0.1822,-0.185,-0.1864,-0.187,-0.1874,-0.1891,-0.1897,-0.1825,-0.1825,-0.1826,0,-0.179,-0.1803,-0.1787,-0.18,-0.1802,-0.178,-0.1797,-0.1796,-0.1796,-0.1798,-0.1785,-0.18,-0.1797,-0.1819,-0.183,-0.1831,-0.1836,-0.1823,-0.187,-0.1875,-0.1879,-0.1894,-0.19,-0.1828,-0.1827,-0.1827,-0.1827,0,-0.1835,-0.1844,-0.1858,-0.1858,-0.1861,-0.1876,-0.1863,-0.1869,-0.1859,-0.1852,-0.1869,-0.1865,-0.187,-0.1874,-0.1863,-0.1894,-0.1888,-0.1873,-0.1851,-0.1888,-0.1902,-0.1908,-0.183,-0.183,-0.1829,-0.1829,0,0,-0.1896,-0.1888,-0.1893,-0.1894,-0.189,-0.1897,-0.1911,-0.1916,-0.1922,-0.1922,-0.1934,-0.1945,-0.1931,-0.1933,-0.1923,-0.1935,-0.1971,-0.1919,-0.1918,-0.193,-0.2006,-0.2018,-0.2025,-0.1961,-0.1962,-0.1963,-0.2007,0,-0.1936,-0.196,-0.1947,-0.1972,-0.1981,-0.1961,-0.1973,-0.1972,-0.1967,-0.1974,-0.1968,-0.1977,-0.1957,-0.1959,-0.197,-0.1964,-0.1986,-0.1961,-0.1973,-0.1974,-0.1975,-0.2033,-0.2045,-0.2087,-0.2012,-0.2013,-0.2014,0,-0.1986,-0.199,-0.2016,-0.2011,-0.2015,-0.2026,-0.203,-0.2037,-0.2036,-0.2032,-0.2034,-0.2021,-0.2035,-0.2013,-0.2033,-0.2016,-0.2021,-0.2019,-0.202,-0.2021,-0.1997,-0.2037,-0.2099,-0.2106,-0.2022,-0.2022,-0.2021,0,-0.203,-0.2041,-0.2058,-0.2059,-0.2054,-0.2063,-0.2061,-0.2059,-0.2063,-0.2067,-0.2069,-0.2074,-0.2078,-0.2082,-0.2072,-0.2056,-0.2094,-0.207,-0.2091,-0.2092,-0.2101,-0.21,-0.2166,-0.2102,-0.2102,-0.2102,-0.2101,0,-0.2077,-0.2094,-0.2078,-0.2089,-0.2108,-0.2093,-0.2113,-0.2109,-0.2108,-0.2118,-0.21,-0.2111,-0.2095,-0.2104,-0.2096,-0.2115,-0.2116,-0.2113,-0.2111,-0.2115,-0.2116,-0.2119,-0.2116,-0.2103,-0.2103,-0.2103,-0.2102,0,-0.2129,-0.2119,-0.2137,-0.2131,-0.2129,-0.2144,-0.2139,-0.2149,-0.2143,-0.2156,-0.2158,-0.2148,-0.2158,-0.2148,-0.2156,-0.2151,-0.2177,-0.217,-0.2177,-0.2176,-0.2198,-0.2196,-0.2268,-0.2278,-0.2206,-0.2207,-0.2208,0,-0.216,-0.2173,-0.2169,-0.2174,-0.2174,-0.2183,-0.2187,-0.2173,-0.2179,-0.218,-0.219,-0.2198,-0.2204,-0.2221,-0.2215,-0.2222,-0.2216,-0.2241,-0.2217,-0.2221,-0.2218,-0.2218,-0.222,-0.2246,-0.2247,-0.2247,-0.2248,0,-0.2217,-0.2212,-0.2218,-0.2224,-0.2229,-0.2233,-0.2235,-0.2241,-0.2227,-0.2234,-0.2244,-0.2249,-0.2258,-0.2267,-0.2273,-0.2271,-0.2258,-0.2255,-0.2261,-0.2266,-0.2271,-0.227,-0.2192,-0.2254,-0.2253,-0.2253,-0.2253,-0.2252,-0.226,-0.2272,-0.227,-0.2279,-0.2279,-0.2282,-0.2292,-0.2287,-0.2295,-0.2301,-0.2293,-0.2305,-0.2305,-0.2311,-0.2312,-0.2322,-0.2312,-0.2319,-0.2322,-0.2324,-0.2328,-0.2268,-0.2323,-0.2323,-0.2323,-0.2322,-0.2322,0,-0.2317,-0.2316,-0.2324,-0.2328,-0.2335,-0.2321,-0.2323,-0.233,-0.2341,-0.2343,-0.2349,-0.2361,-0.237,-0.2365,-0.2373,-0.2382,-0.2376,-0.2385,-0.2385,-0.2385,-0.2336,-0.2331,-0.239,-0.239,-0.239,-0.239,-0.239,-0.239,-0.2348,-0.2366,-0.2361,-0.238,-0.2378,-0.239,-0.2393,-0.2396,-0.2397,-0.2411,-0.2419,-0.2415,-0.2414,-0.2422,-0.243,-0.2428,-0.2433,-0.2444,-0.244,-0.2395,-0.2388,-0.2382,-0.2377,-0.2444,-0.2445,-0.2488,-0.2489,-0.2489]},{"header":{"parameterUnit":"m.s-1","parameterCategory":1,"la1":30.2991,"la2":30.254,"lo1":-89.0895,"lo2":-89.0444,"dy":0.0017,"dx":0.0017,"nx":28,"ny":28,"refTime":"2025-09-14T09:00:00:Z","depth":0,"parameterNumber":3,"parameterNumberName":"V-component_of_WINDS"},"data":[0,0,0,0,0,0,0,0,0,0,0,0,0,0,0,0,0,0,0,0,0,0,0,0,0,0,0,0,0,0,0,0,0,0,0,0,0,0,0,0,0,0,0,0,0,0,0,0,0,0,0,0,0,0,0,0,0,0,0.8831,0.8831,0,0.8843,0.8843,0.8843,0.8845,0.8845,0.8845,0.8845,0.8854,0.8854,0.8855,0,0,0,0,0,0,0,0,0,0,0,0,0,0.8807,0.8807,0.8831,0.8831,0.8831,0.8843,0.8843,0.8843,0.8845,0.8845,0.8845,0.8845,0.8854,0.8854,0.8855,0,0,0,0,0,0,0,0,0,0,0,0,0,0.8817,0.8807,0.8831,0.8834,0.8834,0.8843,0.8843,0.8843,0.8845,0.8845,0.8845,0.8845,0.8854,0.8854,0.8855,0.8861,0,0,0.8856,0.8857,0,0,0,0,0,0,0,0,0.8817,0.8818,0.8833,0.8834,0.8834,0.8842,0.8838,0.8849,0.8845,0.8841,0.8845,0.8845,0.885,0.8851,0.8853,0.8861,0.8861,0.8856,0.8857,0.8857,0.8857,0,0,0,0,0,0,0,0.8816,0.8818,0.8836,0.8834,0.8834,0.8833,0.8835,0.884,0.8846,0.8841,0.8842,0.8843,0.885,0.8853,0.8854,0.8861,0.8856,0.8857,0.8857,0.8857,0.887,0.8871,0,0,0,0,0,0,0.8815,0.8817,0.8835,0.8836,0.8825,0.8834,0.8835,0.884,0.8846,0.8847,0.8843,0.8843,0.8852,0.8853,0.8854,0.8859,0.8857,0.8857,0.8858,0.887,0.887,0.8871,0,0,0,0,0,0,0.8815,0.8817,0.8835,0.8827,0.8829,0.8834,0.8839,0.884,0.8843,0.8847,0.8848,0.8845,0.8852,0.8853,0.8858,0.8859,0.8858,0.8858,0.887,0.887,0.8871,0.887,0,0,0,0,0,0,0.8814,0.8817,0.882,0.8827,0.8829,0.884,0.8839,0.884,0.8844,0.8844,0.8849,0.885,0.8852,0.8857,0.8859,0.886,0.8858,0.887,0.887,0.887,0.887,0.887,0.887,0,0,0,0,0,0.8813,0.882,0.8821,0.8823,0.8834,0.8841,0.8842,0.8845,0.8844,0.8846,0.8849,0.885,0.8859,0.8858,0.8859,0.8861,0.887,0.887,0.887,0.887,0.887,0.887,0,0,0,0,0,0,0.8813,0.8821,0.8822,0.8831,0.8835,0.8841,0.8845,0.8845,0.8849,0.8849,0.8852,0.8853,0.8857,0.8859,0.8858,0.8865,0.8864,0.8865,0.8863,0.8863,0.8863,0.8863,0.8859,0,0,0,0,0,0.8815,0.882,0.8826,0.8834,0.8836,0.884,0.8843,0.8844,0.8848,0.885,0.8853,0.8856,0.8859,0.8861,0.8865,0.887,0.887,0.8871,0.8871,0.8871,0.8871,0.8871,0.8871,0.8871,0.8871,0.8871,0,0,0.8817,0.8822,0.8825,0.8834,0.8837,0.8841,0.8841,0.8847,0.8849,0.8851,0.8855,0.8857,0.886,0.8865,0.8867,0.8867,0.8871,0.8871,0.8871,0.8872,0.8871,0.8872,0.8872,0.8871,0.8871,0.8871,0,0,0.8823,0.8828,0.8834,0.8837,0.8842,0.8844,0.8845,0.885,0.8852,0.8856,0.8857,0.8859,0.8865,0.8867,0.8868,0.8872,0.8872,0.8873,0.8873,0.8873,0.8873,0.8873,0.8872,0.8872,0.8873,0.8873,0.8873,0,0.8825,0.8833,0.8836,0.8841,0.8843,0.8845,0.8849,0.8851,0.8857,0.8858,0.8858,0.8864,0.8866,0.8869,0.887,0.8872,0.8871,0.8872,0.8873,0.8873,0.8873,0.8872,0.8872,0.8873,0.8873,0.8873,0.8873,0,0.8834,0.8839,0.8843,0.8848,0.8851,0.8855,0.8857,0.8859,0.886,0.8861,0.8864,0.8867,0.887,0.887,0.8872,0.8873,0.8872,0.8873,0.8872,0.8873,0.8872,0.8872,0.8873,0.8873,0.8873,0.8873,0,0,0.8843,0.8848,0.8849,0.885,0.8854,0.8857,0.886,0.8863,0.8864,0.8867,0.8868,0.8872,0.8871,0.8873,0.8873,0.8873,0.8873,0.8873,0.8873,0.8872,0.8872,0.8871,0.8871,0.8873,0.8873,0.8873,0.8871,0,0.8848,0.8855,0.8857,0.8862,0.8865,0.8864,0.8866,0.8868,0.8869,0.887,0.887,0.8872,0.8872,0.8873,0.8873,0.8873,0.8873,0.8873,0.8872,0.8872,0.8871,0.8871,0.8871,0.887,0.8871,0.8871,0.8871,0,0.8857,0.8859,0.8864,0.8865,0.8867,0.8869,0.887,0.8872,0.8873,0.8873,0.8873,0.8873,0.8874,0.8874,0.8873,0.8874,0.8873,0.8872,0.8872,0.8872,0.8871,0.8869,0.8869,0.8869,0.8871,0.8871,0.8871,0,0.886,0.8865,0.8868,0.8869,0.8871,0.8872,0.8872,0.8873,0.8874,0.8874,0.8874,0.8875,0.8875,0.8874,0.8873,0.8873,0.8872,0.8872,0.8871,0.887,0.887,0.887,0.8869,0.8871,0.8871,0.8871,0.8871,0,0.8866,0.8868,0.8869,0.8871,0.8873,0.8873,0.8875,0.8875,0.8875,0.8876,0.8875,0.8875,0.8875,0.8874,0.8873,0.8871,0.8872,0.8871,0.887,0.887,0.887,0.887,0.8869,0.8871,0.8871,0.8871,0.8871,0,0.887,0.8871,0.8874,0.8875,0.8875,0.8876,0.8876,0.8876,0.8876,0.8876,0.8876,0.8876,0.8874,0.8873,0.8872,0.8871,0.8869,0.8869,0.8869,0.8869,0.8867,0.8867,0.8865,0.8864,0.8868,0.8868,0.8868,0,0.8874,0.8875,0.8876,0.8876,0.8877,0.8878,0.8878,0.8877,0.8877,0.8877,0.8877,0.8875,0.8875,0.8872,0.8871,0.8869,0.8868,0.8867,0.8868,0.8867,0.8866,0.8866,0.8865,0.8867,0.8867,0.8867,0.8867,0,0.8879,0.8878,0.8879,0.8879,0.8879,0.8879,0.8879,0.8879,0.8878,0.8878,0.8877,0.8876,0.8874,0.8872,0.8869,0.8868,0.8866,0.8867,0.8866,0.8866,0.8865,0.8864,0.8868,0.8867,0.8867,0.8867,0.8867,0.8867,0.8882,0.8882,0.8882,0.8882,0.8882,0.8881,0.8881,0.888,0.8879,0.8878,0.8877,0.8875,0.8873,0.8869,0.8868,0.8865,0.8865,0.8864,0.8864,0.8864,0.8863,0.8866,0.8865,0.8865,0.8865,0.8865,0.8865,0,0.8885,0.8885,0.8885,0.8884,0.8883,0.8883,0.8881,0.8881,0.8879,0.8878,0.8876,0.8873,0.8871,0.8868,0.8865,0.8863,0.8862,0.8862,0.8862,0.8861,0.8864,0.8864,0.8862,0.8862,0.8862,0.8862,0.8862,0.8862,0.8887,0.8888,0.8887,0.8886,0.8885,0.8883,0.8882,0.8881,0.8879,0.8876,0.8874,0.8872,0.8869,0.8865,0.8862,0.8861,0.8859,0.8859,0.8858,0.8861,0.8861,0.8861,0.8861,0.8859,0.8859,0.8855,0.8855,0.8855]}]]